Language selection

Weather shortcuts

Explorer - northwestern half: Past 24 Hour Conditions

 

Dixon Entrance Central - 46145

10:00 PM PDT 17 May 2024Buoy position: 54.22N 132.27W
Disclaimer

This table is a summary of hourly weather conditions for the past 24 hours.
Please note that these observations might not always be representative of weather conditions over their associated marine area.

Date / Time
(PDT)
Wind(knots) Wave height(m) Wave period(s) Pressure(kPa) Air tempC) Water tempC)
17 May 2024
22:00 NW 9 gusts 12 0.90 6.4 101.9 7 9
21:00 NW 11 gusts 13 1.00 6.2 101.9 7 9
20:00 NW 11 gusts 13 1.10 6.6 102.0 7 9
19:00 NW 12 gusts 15 1.10 6.4 102.0 7 9
18:00 NW 14 gusts 17 1.00 6.7 102.0 7 9
17:00 NW 14 gusts 17 1.10 6.6 102.0 8 9
16:00 NW 14 gusts 17 1.20 7.3 102.0 7 9
15:00 NW 13 gusts 16 1.20 7.3 102.0 8 9
14:00 NW 13 gusts 16 1.40 7.1 102.0 8 9
13:00 NW 15 gusts 18 1.50 7.3 102.0 8 9
12:00 NNW 15 gusts 17 1.50 7.8 102.0 8 9
11:00 NNW 16 gusts 19 1.70 7.5 102.0 8 9
10:00 NNW 17 gusts 20 1.80 7.8 102.0 8 9
9:00 NNW 18 gusts 22 1.90 7.8 102.0 8 9
8:00 NNW 17 gusts 22 1.90 8.0 101.9 8 9
7:00 NNW 17 gusts 21 2.10 8.0 101.9 8 9
6:00 NNW 19 gusts 24 2.20 8.0 101.9 8 9
5:00 NNW 18 gusts 24 2.70 7.8 101.9 8 9
4:00 NNW 20 gusts 24 2.40 8.3 101.9 8 9
3:00 NNW 22 gusts 26 2.40 8.3 101.9 8 9
2:00 NNW 21 gusts 26 2.80 9.1 101.8 8 9
1:00 NNW 22 gusts 26 2.70 8.8 101.8 8 9
0:00 NNW 23 gusts 27 2.70 8.0 101.8 8 9
16 May 2024
23:00 N 22 gusts 26 3.00 8.3 101.8 8 9
22:00 N 25 gusts 32 2.90 8.0 101.7 8 9

Zoom-in to make a selection

Map of Pacific - North Coast marine weather areas Middle Nomad - 46004 South Nomad - 46036 Dixon Entrance Central - 46145 South Moresby - 46147 Nanakwa Shoal - 46181 North Hecate Strait - 46183 North Nomad - 46184 South Hecate Strait - 46185 West Sea Otter - 46204 West Dixon Entrance - 46205 East Dellwood - 46207 West Moresby - 46208 Sartine Island Cape St.James Kindakun Rocks Langara Island Masset Municipal Airport Rose Spit Sandspit Airport Bella Bella Airport Bella Coola Airport Bonilla Island Cathedral Point Cumshewa Island Grey Islet Holland Rock Lucy Islands Lightstation Prince Rupert Airport
Legend:
buoy Buoy
land station Land Station

Pacific - North Coast Area

Another Region

Date modified: